Location: Newark
(49.8969°N, 3.3422°E)
Time: 06:43:25
(UTC+00:00)

Explorer 7 - Pass Details

Date: 29 January 2020
Orbit: 485 x 679 km, 50.3° (Epoch: 27 February)

Event Time Altitude Azimuth Distance (km) Brightness Sun altitude
Rises 00:30:20 0° 277° (W) 2,553 - -57.6°
Reaches altitude 10° 00:32:30 10° 277° (W) 1,669 - -57.5°
Maximum altitude 00:36:15 88° 0° (N) 494 - -57.4°
Drops below altitude 10° 00:40:04 10° 97° (E) 1,695 - -57.2°
Sets 00:42:17 0° 98° (E) 2,597 - -57.1°
